Year,Month,Day,Hour,Minute,Value (Times are PST for barometer in hPa)
2022,01,10,00,00,1024.40
2022,01,10,00,01,1024.41
2022,01,10,00,02,1024.37
2022,01,10,00,03,1024.33
2022,01,10,00,04,1024.29
2022,01,10,00,05,1024.28
2022,01,10,00,06,1024.23
2022,01,10,00,07,1024.21
2022,01,10,00,08,1024.21
2022,01,10,00,09,1024.19
2022,01,10,00,10,1024.20
2022,01,10,00,11,1024.21
2022,01,10,00,12,1024.21
2022,01,10,00,13,1024.24
2022,01,10,00,14,1024.27
2022,01,10,00,15,1024.31
2022,01,10,00,16,1024.34
2022,01,10,00,17,1024.35
2022,01,10,00,18,1024.35
2022,01,10,00,19,1024.40
2022,01,10,00,20,1024.42
2022,01,10,00,21,1024.44
2022,01,10,00,22,1024.50
2022,01,10,00,23,1024.52
2022,01,10,00,24,1024.52
2022,01,10,00,25,1024.52
2022,01,10,00,26,1024.54
2022,01,10,00,27,1024.53
2022,01,10,00,28,1024.54
2022,01,10,00,29,1024.55
2022,01,10,00,30,1024.58
2022,01,10,00,31,1024.61
2022,01,10,00,32,1024.62
2022,01,10,00,33,1024.62
2022,01,10,00,34,1024.62
2022,01,10,00,35,1024.62
2022,01,10,00,36,1024.62
2022,01,10,00,37,1024.62
2022,01,10,00,38,1024.62
2022,01,10,00,39,1024.60
2022,01,10,00,40,1024.59
2022,01,10,00,41,1024.59
2022,01,10,00,42,1024.59
2022,01,10,00,43,1024.59
2022,01,10,00,44,1024.59
2022,01,10,00,45,1024.59
2022,01,10,00,46,1024.56
2022,01,10,00,47,1024.55
2022,01,10,00,48,1024.55
2022,01,10,00,49,1024.53
2022,01,10,00,50,1024.52
2022,01,10,00,51,1024.49
2022,01,10,00,52,1024.48
2022,01,10,00,53,1024.48
2022,01,10,00,54,1024.48
2022,01,10,00,55,1024.48
2022,01,10,00,56,1024.48
2022,01,10,00,57,1024.41
2022,01,10,00,58,1024.34
2022,01,10,00,59,1024.29
2022,01,10,01,00,1024.28
2022,01,10,01,01,1024.33
2022,01,10,01,02,1024.37
2022,01,10,01,03,1024.43
2022,01,10,01,04,1024.40
2022,01,10,01,05,1024.41
2022,01,10,01,06,1024.42
2022,01,10,01,07,1024.39
2022,01,10,01,08,1024.38
2022,01,10,01,09,1024.38
2022,01,10,01,10,1024.38
2022,01,10,01,11,1024.41
2022,01,10,01,12,1024.44
2022,01,10,01,13,1024.45
2022,01,10,01,14,1024.50
2022,01,10,01,15,1024.49
2022,01,10,01,16,1024.48
2022,01,10,01,17,1024.46
2022,01,10,01,18,1024.47
2022,01,10,01,19,1024.42
2022,01,10,01,20,1024.34
2022,01,10,01,21,1024.29
2022,01,10,01,22,1024.31
2022,01,10,01,23,1024.29
2022,01,10,01,24,1024.28
2022,01,10,01,25,1024.28
2022,01,10,01,26,1024.28
2022,01,10,01,27,1024.28
2022,01,10,01,28,1024.21
2022,01,10,01,29,1024.13
2022,01,10,01,30,1024.11
2022,01,10,01,31,1024.14
2022,01,10,01,32,1024.12
2022,01,10,01,33,1024.09
2022,01,10,01,34,1024.05
2022,01,10,01,35,1024.07
2022,01,10,01,36,1024.05
2022,01,10,01,37,1023.97
2022,01,10,01,38,1023.88
2022,01,10,01,39,1023.78
2022,01,10,01,40,1023.79
2022,01,10,01,41,1023.78
2022,01,10,01,42,1023.75
2022,01,10,01,43,1023.74
2022,01,10,01,44,1023.84
2022,01,10,01,45,1023.95
2022,01,10,01,46,1024.02
2022,01,10,01,47,1024.09
2022,01,10,01,48,1024.09
2022,01,10,01,49,1024.05
2022,01,10,01,50,1024.02
2022,01,10,01,51,1024.01
2022,01,10,01,52,1024.06
2022,01,10,01,53,1024.05
2022,01,10,01,54,1024.02
2022,01,10,01,55,1024.03
2022,01,10,01,56,1024.07
2022,01,10,01,57,1024.10
2022,01,10,01,58,1024.14
2022,01,10,01,59,1024.17
2022,01,10,02,00,1024.20
2022,01,10,02,01,1024.19
2022,01,10,02,02,1024.16
2022,01,10,02,03,1024.17
2022,01,10,02,04,1024.18
2022,01,10,02,05,1024.16
2022,01,10,02,06,1024.19
2022,01,10,02,07,1024.19
2022,01,10,02,08,1024.18
2022,01,10,02,09,1024.20
2022,01,10,02,10,1024.21
2022,01,10,02,11,1024.21
2022,01,10,02,12,1024.24
2022,01,10,02,13,1024.27
2022,01,10,02,14,1024.31
2022,01,10,02,15,1024.23
2022,01,10,02,16,1024.13
2022,01,10,02,17,1024.14
2022,01,10,02,18,1024.17
2022,01,10,02,19,1024.16
2022,01,10,02,20,1024.17
2022,01,10,02,21,1024.18
2022,01,10,02,22,1024.16
2022,01,10,02,23,1024.15
2022,01,10,02,24,1024.10
2022,01,10,02,25,1024.10
2022,01,10,02,26,1024.09
2022,01,10,02,27,1024.05
2022,01,10,02,28,1024.11
2022,01,10,02,29,1024.17
2022,01,10,02,30,1024.16
2022,01,10,02,31,1024.12
2022,01,10,02,32,1024.09
2022,01,10,02,33,1024.08
2022,01,10,02,34,1023.99
2022,01,10,02,35,1023.94
2022,01,10,02,36,1023.99
2022,01,10,02,37,1023.99
2022,01,10,02,38,1023.96
2022,01,10,02,39,1023.94
2022,01,10,02,40,1023.97
2022,01,10,02,41,1023.95
2022,01,10,02,42,1024.01
2022,01,10,02,43,1024.04
2022,01,10,02,44,1024.07
2022,01,10,02,45,1024.03
2022,01,10,02,46,1023.99
2022,01,10,02,47,1023.95
2022,01,10,02,48,1023.94
2022,01,10,02,49,1023.97
2022,01,10,02,50,1023.93
2022,01,10,02,51,1023.89
2022,01,10,02,52,1023.88
2022,01,10,02,53,1023.85
2022,01,10,02,54,1023.82
2022,01,10,02,55,1023.81
2022,01,10,02,56,1023.76
2022,01,10,02,57,1023.69
2022,01,10,02,58,1023.67
2022,01,10,02,59,1023.67
2022,01,10,03,00,1023.65
2022,01,10,03,01,1023.59
2022,01,10,03,02,1023.57
2022,01,10,03,03,1023.57
2022,01,10,03,06,1023.54
2022,01,10,03,07,1023.51
2022,01,10,03,08,1023.48
2022,01,10,03,09,1023.47
2022,01,10,03,10,1023.47
2022,01,10,03,11,1023.50
2022,01,10,03,12,1023.53
2022,01,10,03,13,1023.51
2022,01,10,03,14,1023.44
2022,01,10,03,15,1023.49
2022,01,10,03,16,1023.50
2022,01,10,03,17,1023.48
2022,01,10,03,18,1023.44
2022,01,10,03,19,1023.43
2022,01,10,03,20,1023.49
2022,01,10,03,21,1023.44
2022,01,10,03,22,1023.46
2022,01,10,03,23,1023.50
2022,01,10,03,24,1023.53
2022,01,10,03,25,1023.54
2022,01,10,03,26,1023.48
2022,01,10,03,27,1023.47
2022,01,10,03,28,1023.50
2022,01,10,03,29,1023.50
2022,01,10,03,30,1023.53
2022,01,10,03,31,1023.51
2022,01,10,03,32,1023.48
2022,01,10,03,33,1023.50
2022,01,10,03,34,1023.53
2022,01,10,03,35,1023.51
2022,01,10,03,36,1023.50
2022,01,10,03,37,1023.47
2022,01,10,03,38,1023.50
2022,01,10,03,39,1023.50
2022,01,10,03,40,1023.50
2022,01,10,03,41,1023.44
2022,01,10,03,42,1023.41
2022,01,10,03,43,1023.42
2022,01,10,03,44,1023.40
2022,01,10,03,45,1023.40
2022,01,10,03,46,1023.40
2022,01,10,03,47,1023.40
2022,01,10,03,48,1023.29
2022,01,10,03,49,1023.21
2022,01,10,03,50,1023.17
2022,01,10,03,51,1023.19
2022,01,10,03,52,1023.20
2022,01,10,03,53,1023.28
2022,01,10,03,54,1023.30
2022,01,10,03,55,1023.30
2022,01,10,03,56,1023.30
2022,01,10,03,57,1023.30
2022,01,10,03,58,1023.27
2022,01,10,03,59,1023.24
2022,01,10,04,00,1023.20
2022,01,10,04,01,1023.26
2022,01,10,04,02,1023.21
2022,01,10,04,03,1023.17
2022,01,10,04,04,1023.14
2022,01,10,04,05,1023.13
2022,01,10,04,06,1023.10
2022,01,10,04,07,1023.07
2022,01,10,04,08,1022.98
2022,01,10,04,09,1022.94
2022,01,10,04,10,1022.93
2022,01,10,04,11,1022.95
2022,01,10,04,12,1022.94
2022,01,10,04,13,1022.95
2022,01,10,04,14,1022.98
2022,01,10,04,15,1023.05
2022,01,10,04,16,1023.09
2022,01,10,04,17,1023.04
2022,01,10,04,18,1023.03
2022,01,10,04,19,1023.03
2022,01,10,04,20,1023.00
2022,01,10,04,21,1022.94
2022,01,10,04,22,1022.85
2022,01,10,04,23,1022.83
2022,01,10,04,24,1022.83
2022,01,10,04,25,1022.88
2022,01,10,04,26,1022.89
2022,01,10,04,27,1022.84
2022,01,10,04,28,1022.80
2022,01,10,04,29,1022.73
2022,01,10,04,30,1022.64
2022,01,10,04,31,1022.56
2022,01,10,04,32,1022.55
2022,01,10,04,33,1022.61
2022,01,10,04,34,1022.59
2022,01,10,04,35,1022.53
2022,01,10,04,36,1022.46
2022,01,10,04,37,1022.45
2022,01,10,04,38,1022.48
2022,01,10,04,39,1022.43
2022,01,10,04,40,1022.34
2022,01,10,04,41,1022.32
2022,01,10,04,42,1022.34
2022,01,10,04,43,1022.38
2022,01,10,04,44,1022.44
2022,01,10,04,45,1022.48
2022,01,10,04,46,1022.46
2022,01,10,04,47,1022.40
2022,01,10,04,48,1022.33
2022,01,10,04,49,1022.32
2022,01,10,04,50,1022.32
2022,01,10,04,51,1022.24
2022,01,10,04,52,1022.13
2022,01,10,04,53,1022.11
2022,01,10,04,54,1022.08
2022,01,10,04,55,1022.06
2022,01,10,04,56,1022.13
2022,01,10,04,57,1022.15
2022,01,10,04,58,1022.15
2022,01,10,04,59,1022.12
2022,01,10,05,00,1022.20
2022,01,10,05,01,1022.19
2022,01,10,05,02,1022.12
2022,01,10,05,03,1022.01
2022,01,10,05,04,1021.87
2022,01,10,05,05,1021.76
2022,01,10,05,06,1021.72
2022,01,10,05,07,1021.68
2022,01,10,05,08,1021.65
2022,01,10,05,09,1021.64
2022,01,10,05,10,1021.62
2022,01,10,05,11,1021.66
2022,01,10,05,12,1021.78
2022,01,10,05,13,1021.81
2022,01,10,05,14,1021.81
2022,01,10,05,15,1021.83
2022,01,10,05,16,1021.87
2022,01,10,05,17,1021.90
2022,01,10,05,18,1021.89
2022,01,10,05,19,1021.88
2022,01,10,05,20,1021.80
2022,01,10,05,21,1021.83
2022,01,10,05,22,1021.84
2022,01,10,05,23,1021.74
2022,01,10,05,24,1021.65
2022,01,10,05,25,1021.62
2022,01,10,05,26,1021.70
2022,01,10,05,27,1021.65
2022,01,10,05,28,1021.70
2022,01,10,05,29,1021.73
2022,01,10,05,30,1021.74
2022,01,10,05,31,1021.74
2022,01,10,05,32,1021.74
2022,01,10,05,33,1021.68
2022,01,10,05,34,1021.67
2022,01,10,05,35,1021.62
2022,01,10,05,36,1021.53
2022,01,10,05,37,1021.42
2022,01,10,05,38,1021.40
2022,01,10,05,39,1021.35
2022,01,10,05,40,1021.39
2022,01,10,05,41,1021.46
2022,01,10,05,42,1021.41
2022,01,10,05,43,1021.40
2022,01,10,05,44,1021.38
2022,01,10,05,45,1021.37
2022,01,10,05,46,1021.39
2022,01,10,05,47,1021.40
2022,01,10,05,48,1021.40
2022,01,10,05,49,1021.43
2022,01,10,05,50,1021.47
2022,01,10,05,51,1021.41
2022,01,10,05,52,1021.48
2022,01,10,05,53,1021.53
2022,01,10,05,54,1021.51
2022,01,10,05,55,1021.56
2022,01,10,05,56,1021.60
2022,01,10,05,57,1021.71
2022,01,10,05,58,1021.74
2022,01,10,05,59,1021.72
2022,01,10,06,00,1021.68
2022,01,10,06,01,1021.67
2022,01,10,06,02,1021.70
2022,01,10,06,03,1021.73
2022,01,10,06,04,1021.77
2022,01,10,06,05,1021.80
2022,01,10,06,06,1021.76
2022,01,10,06,07,1021.72
2022,01,10,06,08,1021.71
2022,01,10,06,09,1021.73
2022,01,10,06,10,1021.81
2022,01,10,06,11,1021.87
2022,01,10,06,12,1021.85
2022,01,10,06,13,1021.92
2022,01,10,06,14,1022.03
2022,01,10,06,15,1021.91
2022,01,10,06,16,1021.85
2022,01,10,06,17,1021.84
2022,01,10,06,18,1021.87
2022,01,10,06,19,1021.90
2022,01,10,06,20,1021.83
2022,01,10,06,21,1021.75
2022,01,10,06,22,1021.72
2022,01,10,06,23,1021.71
2022,01,10,06,24,1021.65
2022,01,10,06,25,1021.64
2022,01,10,06,26,1021.62
2022,01,10,06,27,1021.63
2022,01,10,06,28,1021.66
2022,01,10,06,29,1021.65
2022,01,10,06,30,1021.62
2022,01,10,06,31,1021.58
2022,01,10,06,32,1021.47
2022,01,10,06,33,1021.44
2022,01,10,06,34,1021.44
2022,01,10,06,35,1021.44
2022,01,10,06,36,1021.44
2022,01,10,06,37,1021.57
2022,01,10,06,38,1021.75
2022,01,10,06,39,1021.83
2022,01,10,06,40,1021.84
2022,01,10,06,41,1021.82
2022,01,10,06,42,1021.81
2022,01,10,06,43,1021.81
2022,01,10,06,44,1021.88
2022,01,10,06,45,1021.91
2022,01,10,06,46,1021.97
2022,01,10,06,47,1021.95
2022,01,10,06,48,1021.94
2022,01,10,06,49,1022.00
2022,01,10,06,50,1022.14
2022,01,10,06,51,1022.32
2022,01,10,06,52,1022.46
2022,01,10,06,53,1022.49
2022,01,10,06,54,1022.51
2022,01,10,06,55,1022.50
2022,01,10,06,56,1022.51
2022,01,10,06,57,1022.63
2022,01,10,06,58,1022.76
2022,01,10,06,59,1022.91
2022,01,10,07,00,1023.01
2022,01,10,07,01,1023.10
2022,01,10,07,02,1023.21
2022,01,10,07,03,1023.26
2022,01,10,07,04,1023.35
2022,01,10,07,05,1023.37
2022,01,10,07,06,1023.37
2022,01,10,07,07,1023.50
2022,01,10,07,08,1023.59
2022,01,10,07,09,1023.69
2022,01,10,07,10,1023.81
2022,01,10,07,11,1023.82
2022,01,10,07,12,1023.81
2022,01,10,07,13,1023.83
2022,01,10,07,14,1023.84
2022,01,10,07,15,1023.90
2022,01,10,07,16,1023.85
2022,01,10,07,17,1023.79
2022,01,10,07,18,1023.77
2022,01,10,07,19,1023.72
2022,01,10,07,20,1023.68
2022,01,10,07,21,1023.67
2022,01,10,07,22,1023.70
2022,01,10,07,23,1023.73
2022,01,10,07,24,1023.74
2022,01,10,07,25,1023.74
2022,01,10,07,26,1023.76
2022,01,10,07,27,1023.80
2022,01,10,07,28,1023.78
2022,01,10,07,29,1023.69
2022,01,10,07,30,1023.70
2022,01,10,07,31,1023.71
2022,01,10,07,32,1023.73
2022,01,10,07,33,1023.85
2022,01,10,07,34,1023.88
2022,01,10,07,35,1023.88
2022,01,10,07,36,1023.93
2022,01,10,07,37,1023.92
2022,01,10,07,38,1023.91
2022,01,10,07,39,1023.83
2022,01,10,07,40,1023.75
2022,01,10,07,41,1023.68
2022,01,10,07,42,1023.59
2022,01,10,07,43,1023.51
2022,01,10,07,44,1023.44
2022,01,10,07,45,1023.43
2022,01,10,07,46,1023.33
2022,01,10,07,47,1023.24
2022,01,10,07,48,1023.10
2022,01,10,07,49,1022.96
2022,01,10,07,50,1022.79
2022,01,10,07,51,1022.71
2022,01,10,07,52,1022.62
2022,01,10,07,53,1022.59
2022,01,10,07,54,1022.64
2022,01,10,07,55,1022.60
2022,01,10,07,56,1022.52
2022,01,10,07,57,1022.49
2022,01,10,07,58,1022.43
2022,01,10,07,59,1022.36
2022,01,10,08,00,1022.40
2022,01,10,08,01,1022.52
2022,01,10,08,02,1022.61
2022,01,10,08,03,1022.70
2022,01,10,08,04,1022.72
2022,01,10,08,05,1022.81
2022,01,10,08,06,1022.83
2022,01,10,08,07,1022.88
2022,01,10,08,08,1022.92
2022,01,10,08,09,1022.97
2022,01,10,08,10,1022.97
2022,01,10,08,11,1022.96
2022,01,10,08,12,1022.90
2022,01,10,08,13,1022.89
2022,01,10,08,14,1022.95
2022,01,10,08,15,1022.94
2022,01,10,08,16,1022.95
2022,01,10,08,17,1022.96
2022,01,10,08,18,1022.91
2022,01,10,08,19,1022.87
2022,01,10,08,20,1022.86
2022,01,10,08,21,1022.84
2022,01,10,08,22,1022.83
2022,01,10,08,23,1022.83
2022,01,10,08,24,1022.77
2022,01,10,08,25,1022.76
2022,01,10,08,26,1022.76
2022,01,10,08,27,1022.76
2022,01,10,08,28,1022.76
2022,01,10,08,29,1022.76
2022,01,10,08,30,1022.76
2022,01,10,08,31,1022.76
2022,01,10,08,32,1022.92
2022,01,10,08,33,1023.02
2022,01,10,08,34,1023.08
2022,01,10,08,35,1023.07
2022,01,10,08,36,1023.06
2022,01,10,08,37,1023.09
2022,01,10,08,38,1023.15
2022,01,10,08,39,1023.16
2022,01,10,08,40,1023.16
2022,01,10,08,41,1023.52
2022,01,10,08,42,1023.60
2022,01,10,08,43,1023.60
2022,01,10,08,44,1023.68
2022,01,10,08,45,1023.73
2022,01,10,08,46,1023.74
2022,01,10,08,47,1023.72
2022,01,10,08,48,1023.68
2022,01,10,08,49,1023.65
2022,01,10,08,50,1023.72
2022,01,10,08,51,1023.76
2022,01,10,08,52,1023.88
2022,01,10,08,53,1023.93
2022,01,10,08,54,1023.94
2022,01,10,08,55,1023.94
2022,01,10,08,56,1023.97
2022,01,10,08,57,1024.03
2022,01,10,08,58,1024.01
2022,01,10,08,59,1023.78
2022,01,10,09,00,1023.92
2022,01,10,09,01,1024.02
2022,01,10,09,02,1023.99
2022,01,10,09,03,1023.93
2022,01,10,09,04,1023.93
2022,01,10,09,05,1023.94
2022,01,10,09,06,1023.99
2022,01,10,09,07,1024.03
2022,01,10,09,08,1024.02
2022,01,10,09,09,1023.99
2022,01,10,09,10,1023.98
2022,01,10,09,11,1023.95
2022,01,10,09,12,1024.02
2022,01,10,09,13,1024.15
2022,01,10,09,14,1024.23
2022,01,10,09,15,1024.28
2022,01,10,09,16,1024.28
2022,01,10,09,17,1024.26
2022,01,10,09,18,1024.20
2022,01,10,09,19,1024.24
2022,01,10,09,20,1024.30
2022,01,10,09,21,1024.32
2022,01,10,09,22,1023.68
2022,01,10,09,23,1023.44
2022,01,10,09,24,1023.60
2022,01,10,09,25,1023.94
2022,01,10,09,26,1024.04
2022,01,10,09,27,1024.04
2022,01,10,09,28,1024.17
2022,01,10,09,29,1024.21
2022,01,10,09,30,1024.19
2022,01,10,09,31,1024.18
2022,01,10,09,32,1024.18
2022,01,10,09,33,1024.18
2022,01,10,09,34,1024.20
2022,01,10,09,35,1024.21
2022,01,10,09,36,1024.21
2022,01,10,09,37,1024.21
2022,01,10,09,38,1024.21
2022,01,10,09,39,1024.21
2022,01,10,09,40,1024.21
2022,01,10,09,41,1023.47
2022,01,10,09,42,1022.72
2022,01,10,09,43,1022.55
2022,01,10,09,44,1022.55
2022,01,10,09,45,1020.58
2022,01,10,09,46,1019.88
2022,01,10,09,47,1019.88
2022,01,10,09,48,1023.18
2022,01,10,09,49,1024.28
2022,01,10,09,50,1024.31
2022,01,10,09,51,1024.32
2022,01,10,09,52,1024.32
2022,01,10,09,53,1020.00
2022,01,10,09,54,1018.56
2022,01,10,09,55,1021.59
2022,01,10,09,56,1022.89
2022,01,10,09,57,1022.89
2022,01,10,09,58,1020.03
2022,01,10,09,59,1019.27
2022,01,10,10,00,1016.02
2022,01,10,10,01,1014.93
2022,01,10,10,02,1013.23
2022,01,10,10,03,1012.67
2022,01,10,10,04,1012.67
2022,01,10,10,05,1012.67
2022,01,10,10,06,1017.54
2022,01,10,10,07,1019.17
2022,01,10,10,08,1019.17
2022,01,10,10,09,1019.17
2022,01,10,10,10,1022.78
2022,01,10,10,11,1023.93
2022,01,10,10,12,1023.98
2022,01,10,10,13,1024.01
2022,01,10,10,14,1024.01
2022,01,10,10,15,1024.03
2022,01,10,10,16,1024.04
2022,01,10,10,17,1024.04
2022,01,10,10,18,1023.92
2022,01,10,10,19,1024.03
2022,01,10,10,20,1024.08
2022,01,10,10,21,1024.08
2022,01,10,10,22,1024.08
2022,01,10,10,23,1023.17
2022,01,10,10,24,1022.93
2022,01,10,10,25,1022.93
2022,01,10,10,26,1022.93
2022,01,10,10,27,1023.76
2022,01,10,10,28,1024.09
2022,01,10,10,29,1024.11
2022,01,10,10,30,1024.11
2022,01,10,10,31,1024.14
2022,01,10,10,32,1024.12
2022,01,10,10,33,1024.14
2022,01,10,10,34,1024.10
2022,01,10,10,35,1024.05
2022,01,10,10,36,1024.02
2022,01,10,10,37,1024.01
2022,01,10,10,38,1024.01
2022,01,10,10,39,1024.01
2022,01,10,10,40,1024.01
2022,01,10,10,41,1024.01
2022,01,10,10,42,1016.60
2022,01,10,10,43,1013.95
2022,01,10,10,44,1013.95
2022,01,10,10,45,1013.95
2022,01,10,10,46,1013.95
2022,01,10,10,47,1013.01
2022,01,10,10,48,1012.70
2022,01,10,10,49,1012.70
2022,01,10,10,50,1013.58
2022,01,10,10,51,1013.82
2022,01,10,10,52,1015.07
2022,01,10,10,53,1015.66
2022,01,10,10,54,1015.71
2022,01,10,10,55,1015.71
2022,01,10,10,56,1015.71
2022,01,10,10,57,1021.86
2022,01,10,10,58,1023.84
2022,01,10,10,59,1023.96
2022,01,10,11,00,1024.21
2022,01,10,11,01,1024.26
2022,01,10,11,02,1024.40
2022,01,10,11,03,1024.38
2022,01,10,11,04,1024.28
2022,01,10,11,05,1023.82
2022,01,10,11,06,1023.67
2022,01,10,11,07,1023.67
2022,01,10,11,08,1023.67
2022,01,10,11,09,1023.67
2022,01,10,11,10,1023.67
2022,01,10,11,11,1023.67
2022,01,10,11,12,1023.67
2022,01,10,11,13,1023.67
2022,01,10,11,14,1023.67
2022,01,10,11,15,1023.67
2022,01,10,11,16,1019.76
2022,01,10,11,17,1018.36
2022,01,10,11,18,1018.36
2022,01,10,11,19,1018.36
2022,01,10,11,20,1018.36
2022,01,10,11,21,1018.36
2022,01,10,11,22,1018.36
2022,01,10,11,23,1018.36
2022,01,10,11,24,1018.36
2022,01,10,11,25,1018.36
2022,01,10,11,26,1013.46
2022,01,10,11,27,1011.82
2022,01,10,11,28,1011.82
2022,01,10,11,29,1011.82
2022,01,10,11,30,1011.82
2022,01,10,11,31,1011.82
2022,01,10,11,32,1011.82
2022,01,10,11,33,1011.82
2022,01,10,11,34,1019.68
2022,01,10,11,35,1022.49
2022,01,10,11,36,1022.49
2022,01,10,11,37,1022.49
2022,01,10,11,38,1022.49
2022,01,10,11,39,1022.49
2022,01,10,11,40,1022.49
2022,01,10,11,41,1022.49
2022,01,10,11,42,1022.49
2022,01,10,11,43,1022.49
2022,01,10,11,44,1022.49
2022,01,10,11,45,1014.83
2022,01,10,11,46,1011.29
2022,01,10,11,47,1011.08
2022,01,10,11,48,1011.04
2022,01,10,11,49,1011.04
2022,01,10,11,50,1011.04
2022,01,10,11,51,1011.04
2022,01,10,11,52,1011.04
2022,01,10,11,53,1011.04
2022,01,10,11,54,1011.04
2022,01,10,11,55,1011.04
2022,01,10,11,56,1011.04
2022,01,10,11,57,1012.01
2022,01,10,11,58,1012.33
2022,01,10,11,59,1012.33
2022,01,10,12,00,1012.33
2022,01,10,12,01,1012.33
2022,01,10,12,02,1012.33
2022,01,10,12,03,1012.33
2022,01,10,12,04,1012.33
2022,01,10,12,05,1012.33
2022,01,10,12,06,1012.33
2022,01,10,12,07,992.77
2022,01,10,12,08,986.25
2022,01,10,12,09,986.25
2022,01,10,12,10,992.96
2022,01,10,12,11,995.84
2022,01,10,12,12,1005.96
2022,01,10,12,13,1009.58
2022,01,10,12,14,1009.58
2022,01,10,12,15,1009.58
2022,01,10,12,16,1009.58
2022,01,10,12,17,1009.58
2022,01,10,12,18,1009.58
2022,01,10,12,19,1009.58
2022,01,10,12,20,1009.58
2022,01,10,12,21,1009.58
2022,01,10,12,22,1009.58
2022,01,10,12,23,1003.66
2022,01,10,12,24,1001.69
2022,01,10,12,25,1001.69
2022,01,10,12,26,986.93
2022,01,10,12,27,980.60
2022,01,10,12,28,980.60
2022,01,10,12,29,980.60
2022,01,10,12,30,980.60
2022,01,10,12,31,980.60
2022,01,10,12,32,980.60
2022,01,10,12,33,980.60
2022,01,10,12,34,980.60
2022,01,10,12,35,980.60
2022,01,10,12,36,980.60
2022,01,10,12,37,980.60
2022,01,10,12,38,980.60
2022,01,10,12,39,980.60
2022,01,10,12,40,980.60
2022,01,10,12,41,980.60
2022,01,10,12,42,980.60
2022,01,10,12,43,980.60
2022,01,10,12,44,980.60
2022,01,10,12,45,980.60
2022,01,10,12,46,980.60
2022,01,10,12,47,980.60
2022,01,10,12,48,980.60
2022,01,10,12,49,980.60
2022,01,10,12,50,980.60
2022,01,10,12,51,980.60
2022,01,10,12,52,980.60
2022,01,10,12,53,980.60
2022,01,10,12,54,980.60
2022,01,10,12,55,980.60
2022,01,10,12,56,980.60
2022,01,10,12,57,980.60
2022,01,10,12,58,980.60
2022,01,10,12,59,980.60
2022,01,10,13,00,980.60
2022,01,10,13,01,980.60
2022,01,10,13,02,980.60
2022,01,10,13,03,980.60
2022,01,10,13,04,980.60
2022,01,10,13,05,980.60
2022,01,10,13,06,980.60
2022,01,10,13,07,980.60
2022,01,10,13,08,980.60
2022,01,10,13,09,980.60
2022,01,10,13,10,980.60
2022,01,10,13,11,980.60
2022,01,10,13,12,980.60
2022,01,10,13,13,980.60
2022,01,10,13,14,980.60
2022,01,10,13,15,980.60
2022,01,10,13,16,980.60
2022,01,10,13,17,980.60
2022,01,10,13,18,980.60
2022,01,10,13,19,980.60
2022,01,10,13,20,980.60
2022,01,10,13,21,980.60
2022,01,10,13,22,980.60
2022,01,10,13,23,980.60
2022,01,10,13,24,980.60
2022,01,10,13,25,980.60
2022,01,10,13,26,980.60
2022,01,10,13,27,980.60
2022,01,10,13,28,980.60
2022,01,10,13,29,980.60
2022,01,10,13,30,980.60
2022,01,10,13,31,980.60
2022,01,10,13,32,980.60
2022,01,10,13,33,980.60
2022,01,10,13,34,980.60
2022,01,10,13,35,980.60
2022,01,10,13,36,980.60
2022,01,10,13,37,980.60
2022,01,10,13,38,980.60
2022,01,10,13,39,980.60
2022,01,10,13,40,980.60
2022,01,10,13,41,980.60
2022,01,10,13,42,980.60
2022,01,10,13,43,980.60
2022,01,10,13,44,980.60
2022,01,10,13,45,980.60
2022,01,10,13,46,980.60
2022,01,10,13,47,980.60
2022,01,10,13,48,980.60
2022,01,10,13,49,980.60
2022,01,10,13,50,980.60
2022,01,10,13,51,980.60
2022,01,10,13,52,980.60
2022,01,10,13,53,980.60
2022,01,10,13,54,980.60
2022,01,10,13,55,980.60
2022,01,10,13,56,980.60
2022,01,10,13,57,980.60
2022,01,10,13,58,980.60
2022,01,10,13,59,980.60
2022,01,10,14,00,980.60
2022,01,10,14,01,980.60
2022,01,10,14,02,980.60
2022,01,10,14,03,980.60
2022,01,10,14,04,980.60
2022,01,10,14,05,980.60
2022,01,10,14,06,980.60
2022,01,10,14,51,902.95
2022,01,10,14,52,902.95
2022,01,10,14,53,902.95
2022,01,10,14,54,902.95
2022,01,10,14,55,902.95
2022,01,10,14,56,902.95
2022,01,10,14,57,902.95
2022,01,10,14,58,902.95
2022,01,10,14,59,902.95
2022,01,10,15,00,902.95
2022,01,10,15,01,902.95
2022,01,10,15,02,902.95
2022,01,10,15,03,902.95
2022,01,10,15,04,902.95
2022,01,10,15,05,902.95
2022,01,10,15,06,902.95
2022,01,10,15,07,902.95
2022,01,10,15,08,902.95
2022,01,10,15,09,902.95
2022,01,10,15,10,902.95
2022,01,10,15,11,902.95
2022,01,10,15,12,902.95
2022,01,10,15,13,902.95
2022,01,10,15,14,902.95
2022,01,10,15,15,902.95
2022,01,10,15,16,902.95
2022,01,10,15,17,902.95
2022,01,10,15,18,902.95
2022,01,10,15,19,902.95
2022,01,10,15,20,902.95
2022,01,10,15,21,902.95
2022,01,10,15,22,902.95
2022,01,10,15,23,902.95
2022,01,10,15,24,902.95
2022,01,10,15,25,902.95
2022,01,10,15,26,902.95
2022,01,10,15,27,902.95
2022,01,10,15,28,902.95
2022,01,10,15,29,902.95
2022,01,10,15,30,902.95
2022,01,10,15,31,902.95
2022,01,10,15,32,902.95
2022,01,10,15,33,902.95
2022,01,10,15,34,902.95
2022,01,10,15,35,902.95
2022,01,10,15,36,902.95
2022,01,10,15,37,902.95
2022,01,10,15,38,902.95
2022,01,10,15,39,902.95
2022,01,10,15,40,902.95
2022,01,10,15,41,902.95
2022,01,10,15,42,902.95
2022,01,10,15,43,902.95
2022,01,10,15,44,902.95
2022,01,10,15,45,967.80
2022,01,10,15,46,995.60
2022,01,10,15,47,995.60
2022,01,10,15,48,999.09
2022,01,10,15,49,1000.58
2022,01,10,15,50,1000.58
2022,01,10,15,51,1000.22
2022,01,10,15,52,1000.07
2022,01,10,15,53,1000.07
2022,01,10,15,54,1000.07
2022,01,10,15,55,1000.07
2022,01,10,15,56,1000.07
2022,01,10,15,57,1000.07
2022,01,10,15,58,1000.07
2022,01,10,15,59,1000.07
2022,01,10,16,00,1000.07
2022,01,10,16,01,1000.07
2022,01,10,16,02,1000.07
2022,01,10,16,03,1000.07
2022,01,10,16,04,1000.07
2022,01,10,16,05,1004.36
2022,01,10,16,06,1006.20
2022,01,10,16,07,1006.20
2022,01,10,16,08,1006.20
2022,01,10,16,09,1006.20
2022,01,10,16,10,1006.20
2022,01,10,16,11,1006.20
2022,01,10,16,12,1006.20
2022,01,10,16,13,1006.20
2022,01,10,16,14,1006.20
2022,01,10,16,15,1006.20
2022,01,10,16,16,1006.20
2022,01,10,16,17,1006.20
2022,01,10,16,18,996.56
2022,01,10,16,19,991.25
2022,01,10,16,20,991.32
2022,01,10,16,21,991.37
2022,01,10,16,22,991.37
2022,01,10,16,23,991.37
2022,01,10,16,24,991.37
2022,01,10,16,25,991.37
2022,01,10,16,26,991.37
2022,01,10,16,27,991.37
2022,01,10,16,28,991.32
2022,01,10,16,29,991.30
2022,01,10,16,30,991.30
2022,01,10,16,31,993.01
2022,01,10,16,32,993.74
2022,01,10,16,33,993.74
2022,01,10,16,34,991.00
2022,01,10,16,35,989.74
2022,01,10,16,36,987.68
2022,01,10,16,37,986.73
2022,01,10,16,38,986.73
2022,01,10,16,39,986.73
2022,01,10,16,40,986.73
2022,01,10,16,41,986.73
2022,01,10,16,42,986.73
2022,01,10,16,43,986.73
2022,01,10,16,44,986.73
2022,01,10,16,45,986.73
2022,01,10,16,46,986.73
2022,01,10,16,47,986.73
2022,01,10,16,48,986.73
2022,01,10,16,49,990.43
2022,01,10,16,50,992.01